DLH20B EDDH-EDDS

Flight info

Callsign DLH20B
Flight time 0h 53m
Altitude 35000
Route IDEKO8C IDEKO N850 NIE DCT BERXO DCT SILWE DCT OSBIT P605 TOSTU T726 LBU
Aircraft A320/M-SDE3FGHIRWY/LB1

Departure

Time 2026-05-07 14:33
Airport Hamburg Helmut Schmidt Airport (EDDH)

Arrival

Time 2026-05-07 15:26
Airport Stuttgart Airport (EDDS)
Time Latitude Longitude Altitude Speed Heading
2026-05-07 14:15 53.63373 10.00338 51 ft 0 kts 86°
2026-05-07 14:20 53.63373 10.00337 51 ft 0 kts 86°
2026-05-07 14:26 53.63373 10.00334 51 ft 2 kts 86°
2026-05-07 14:27 53.63371 10.00290 48 ft 4 kts 86°
2026-05-07 14:27 53.63370 10.00255 45 ft 4 kts 105°
2026-05-07 14:27 53.63376 10.00234 47 ft 4 kts 154°
2026-05-07 14:27 53.63398 10.00226 49 ft 2 kts 176°
2026-05-07 14:28 53.63399 10.00226 50 ft 0 kts 176°
2026-05-07 14:30 53.63390 10.00227 48 ft 7 kts 176°
2026-05-07 14:31 53.63309 10.00235 51 ft 14 kts 176°
2026-05-07 14:31 53.63202 10.00247 51 ft 17 kts 176°
2026-05-07 14:31 53.63092 10.00260 51 ft 14 kts 180°
2026-05-07 14:31 53.63006 10.00197 51 ft 13 kts 212°
2026-05-07 14:32 53.62916 10.00098 51 ft 16 kts 213°
2026-05-07 14:32 53.62846 9.99969 50 ft 17 kts 240°
2026-05-07 14:32 53.62818 9.99805 49 ft 13 kts 291°
2026-05-07 14:32 53.62936 9.99686 50 ft 43 kts 332°
2026-05-07 14:33 53.63424 9.99264 51 ft 111 kts 333°
2026-05-07 14:33 53.64269 9.98533 86 ft 158 kts 337°
2026-05-07 14:33 53.65233 9.97665 685 ft 159 kts 336°
2026-05-07 14:33 53.66228 9.96817 1400 ft 162 kts 337°
2026-05-07 14:34 53.67302 9.95916 1860 ft 183 kts 337°
2026-05-07 14:34 53.68517 9.94892 2229 ft 206 kts 336°
2026-05-07 14:34 53.69839 9.93766 2715 ft 217 kts 336°
2026-05-07 14:34 53.71077 9.92240 3361 ft 229 kts 307°
2026-05-07 14:35 53.71547 9.89686 4035 ft 245 kts 270°
2026-05-07 14:35 53.71263 9.86702 4496 ft 269 kts 254°
2026-05-07 14:35 53.70665 9.83656 5395 ft 277 kts 250°
2026-05-07 14:35 53.69968 9.80596 6370 ft 283 kts 249°
2026-05-07 14:36 53.69251 9.77473 7293 ft 286 kts 249°
2026-05-07 14:36 53.68549 9.74306 8225 ft 289 kts 250°
2026-05-07 14:36 53.67872 9.71110 9237 ft 289 kts 251°
2026-05-07 14:36 53.67216 9.67903 10202 ft 290 kts 251°
2026-05-07 14:37 53.66364 9.64698 10612 ft 311 kts 238°
2026-05-07 14:37 53.63096 9.59220 11103 ft 357 kts 211°
2026-05-07 14:37 53.60798 9.57456 11636 ft 367 kts 197°
2026-05-07 14:38 53.58283 9.56608 12348 ft 372 kts 186°
2026-05-07 14:38 53.55709 9.56102 13090 ft 375 kts 187°
2026-05-07 14:38 53.53102 9.55581 13811 ft 379 kts 187°
2026-05-07 14:38 53.50468 9.55054 14444 ft 383 kts 187°
2026-05-07 14:39 53.47811 9.54520 15066 ft 386 kts 187°
2026-05-07 14:39 53.45134 9.53982 15676 ft 389 kts 188°
2026-05-07 14:39 53.42428 9.53443 16275 ft 393 kts 187°
2026-05-07 14:39 53.39701 9.52904 16894 ft 396 kts 188°
2026-05-07 14:40 53.36952 9.52369 17490 ft 400 kts 187°
2026-05-07 14:40 53.34178 9.51829 18081 ft 403 kts 188°
2026-05-07 14:40 53.31385 9.51284 18614 ft 406 kts 188°
2026-05-07 14:40 53.28571 9.50732 19121 ft 408 kts 188°
2026-05-07 14:41 53.25743 9.50178 19640 ft 411 kts 188°
2026-05-07 14:41 53.22892 9.49616 20149 ft 413 kts 188°
2026-05-07 14:41 53.20037 9.49059 20664 ft 415 kts 188°
2026-05-07 14:41 53.17158 9.48503 21156 ft 417 kts 187°
2026-05-07 14:42 53.14261 9.47944 21643 ft 420 kts 187°
2026-05-07 14:42 53.11346 9.47379 22116 ft 422 kts 188°
2026-05-07 14:42 53.08420 9.46808 22588 ft 425 kts 188°
2026-05-07 14:42 53.05480 9.46236 23052 ft 427 kts 188°
2026-05-07 14:43 53.02521 9.45665 23506 ft 429 kts 188°
2026-05-07 14:43 52.99580 9.45100 23887 ft 432 kts 188°
2026-05-07 14:43 52.96594 9.44511 24241 ft 434 kts 188°
2026-05-07 14:43 52.93585 9.43878 24596 ft 436 kts 188°
2026-05-07 14:44 52.90572 9.43219 24945 ft 438 kts 188°
2026-05-07 14:44 52.87545 9.42549 25277 ft 440 kts 188°
2026-05-07 14:44 52.84493 9.41877 25593 ft 443 kts 188°
2026-05-07 14:44 52.81428 9.41210 25907 ft 446 kts 188°
2026-05-07 14:45 52.78344 9.40545 26235 ft 447 kts 188°
2026-05-07 14:45 52.75254 9.39888 26543 ft 450 kts 188°
2026-05-07 14:45 52.72138 9.39235 26842 ft 452 kts 188°
2026-05-07 14:45 52.69015 9.38581 27146 ft 454 kts 188°
2026-05-07 14:46 52.65867 9.37932 27448 ft 456 kts 186°
2026-05-07 14:46 52.62694 9.37765 27720 ft 459 kts 178°
2026-05-07 14:46 52.59506 9.38382 28019 ft 462 kts 169°
2026-05-07 14:46 52.56375 9.39553 28421 ft 461 kts 167°
2026-05-07 14:47 52.53245 9.40733 28842 ft 460 kts 168°
2026-05-07 14:47 52.50125 9.41900 29242 ft 460 kts 168°
2026-05-07 14:47 52.47008 9.43062 29661 ft 459 kts 167°
2026-05-07 14:47 52.43890 9.44224 30073 ft 458 kts 168°
2026-05-07 14:48 52.40783 9.45382 30420 ft 458 kts 167°
2026-05-07 14:48 52.37676 9.46541 30757 ft 458 kts 167°
2026-05-07 14:48 52.34565 9.47701 31085 ft 458 kts 168°
2026-05-07 14:48 52.31455 9.48857 31407 ft 458 kts 167°
2026-05-07 14:49 52.28351 9.50006 31748 ft 457 kts 167°
2026-05-07 14:49 52.25278 9.51139 32094 ft 457 kts 167°
2026-05-07 14:49 52.22175 9.52279 32401 ft 458 kts 167°
2026-05-07 14:49 52.19069 9.53423 32743 ft 458 kts 167°
2026-05-07 14:50 52.15922 9.54582 33052 ft 458 kts 167°
2026-05-07 14:50 52.12848 9.55711 33347 ft 459 kts 167°
2026-05-07 14:50 52.09738 9.56856 33726 ft 458 kts 167°
2026-05-07 14:50 52.06638 9.57996 34044 ft 458 kts 167°
2026-05-07 14:51 52.03528 9.59137 34371 ft 456 kts 167°
2026-05-07 14:51 52.00431 9.60270 34681 ft 456 kts 168°
2026-05-07 14:51 51.97342 9.61397 34955 ft 456 kts 168°
2026-05-07 14:51 51.94245 9.62525 35055 ft 456 kts 168°
2026-05-07 14:52 51.88036 9.64784 35072 ft 458 kts 168°
2026-05-07 14:52 51.81815 9.67038 35077 ft 458 kts 168°
2026-05-07 14:53 51.75596 9.69284 35073 ft 457 kts 168°
2026-05-07 14:53 51.69378 9.71523 35073 ft 457 kts 168°
2026-05-07 14:54 51.63180 9.73752 35067 ft 456 kts 168°
2026-05-07 14:54 51.56979 9.75976 35058 ft 456 kts 168°
2026-05-07 14:55 51.50773 9.78198 35045 ft 456 kts 168°
2026-05-07 14:55 51.44571 9.80420 35046 ft 456 kts 168°
2026-05-07 14:56 51.38393 9.82620 35035 ft 456 kts 169°
2026-05-07 14:56 51.32188 9.84824 35049 ft 457 kts 168°
2026-05-07 14:57 51.25982 9.87020 35049 ft 457 kts 168°
2026-05-07 14:57 51.19722 9.87997 35048 ft 455 kts 184°
2026-05-07 14:58 51.13361 9.87416 35045 ft 455 kts 184°
2026-05-07 14:58 51.07075 9.86865 35048 ft 455 kts 184°
2026-05-07 14:59 51.00700 9.86328 35050 ft 456 kts 184°
2026-05-07 14:59 50.94370 9.85776 35048 ft 456 kts 184°
2026-05-07 15:00 50.88077 9.85228 35050 ft 456 kts 184°
2026-05-07 15:00 50.81734 9.84684 35053 ft 456 kts 184°
2026-05-07 15:01 50.75391 9.84138 35055 ft 456 kts 184°
2026-05-07 15:01 50.69051 9.83593 35055 ft 457 kts 184°
2026-05-07 15:02 50.62702 9.83051 35056 ft 456 kts 184°
2026-05-07 15:02 50.56358 9.82497 35059 ft 456 kts 184°
2026-05-07 15:03 50.50016 9.81956 35054 ft 456 kts 184°
2026-05-07 15:03 50.43682 9.81412 35050 ft 456 kts 184°
2026-05-07 15:04 50.37348 9.80874 35056 ft 456 kts 185°
2026-05-07 15:04 50.31011 9.80339 35056 ft 456 kts 185°
2026-05-07 15:05 50.24676 9.79803 35057 ft 456 kts 184°
2026-05-07 15:05 50.18377 9.79273 35050 ft 456 kts 184°
2026-05-07 15:06 50.11999 9.78741 35051 ft 456 kts 184°
2026-05-07 15:06 50.05690 9.78395 35047 ft 457 kts 179°
2026-05-07 15:07 49.99339 9.78813 35046 ft 457 kts 179°
2026-05-07 15:07 49.92974 9.79227 34807 ft 458 kts 179°
2026-05-07 15:08 49.89789 9.79431 34574 ft 458 kts 179°
2026-05-07 15:08 49.86601 9.79633 34340 ft 458 kts 179°
2026-05-07 15:08 49.83414 9.79838 34109 ft 459 kts 179°
2026-05-07 15:08 49.80224 9.80040 33846 ft 459 kts 179°
2026-05-07 15:09 49.78110 9.80174 33663 ft 459 kts 179°
2026-05-07 15:09 49.74919 9.80380 33378 ft 459 kts 179°
2026-05-07 15:09 49.71730 9.80587 33102 ft 459 kts 179°
2026-05-07 15:09 49.68529 9.80779 32122 ft 463 kts 179°
2026-05-07 15:10 49.65289 9.80935 31065 ft 468 kts 180°
2026-05-07 15:10 49.62027 9.81080 30031 ft 470 kts 179°
2026-05-07 15:10 49.58756 9.81656 28792 ft 475 kts 172°
2026-05-07 15:10 49.55491 9.82537 27555 ft 476 kts 171°
2026-05-07 15:11 49.52265 9.83425 26242 ft 465 kts 172°
2026-05-07 15:11 49.49122 9.84302 25013 ft 454 kts 172°
2026-05-07 15:11 49.46018 9.85170 23865 ft 455 kts 172°
2026-05-07 15:11 49.42886 9.86041 22567 ft 460 kts 172°
2026-05-07 15:12 49.39733 9.86914 21610 ft 459 kts 172°
2026-05-07 15:12 49.36604 9.87774 20718 ft 456 kts 172°
2026-05-07 15:12 49.33485 9.88629 19822 ft 454 kts 172°
2026-05-07 15:12 49.30381 9.89477 18946 ft 452 kts 172°
2026-05-07 15:13 49.27288 9.90320 18039 ft 450 kts 172°
2026-05-07 15:13 49.24222 9.90983 17255 ft 442 kts 180°
2026-05-07 15:13 49.21199 9.90517 16531 ft 431 kts 195°
2026-05-07 15:13 49.18431 9.88873 15673 ft 425 kts 212°
2026-05-07 15:14 49.16105 9.86199 14896 ft 418 kts 226°
2026-05-07 15:14 49.14341 9.82738 14201 ft 410 kts 240°
2026-05-07 15:14 49.13184 9.78785 13454 ft 405 kts 250°
2026-05-07 15:14 49.12219 9.74790 12743 ft 399 kts 250°
2026-05-07 15:15 49.11265 9.70846 12061 ft 393 kts 250°
2026-05-07 15:15 49.10324 9.66966 11434 ft 386 kts 250°
2026-05-07 15:15 49.09411 9.63209 11267 ft 368 kts 250°
2026-05-07 15:15 49.08541 9.59638 11135 ft 350 kts 250°
2026-05-07 15:16 49.07713 9.56245 11011 ft 334 kts 250°
2026-05-07 15:16 49.06920 9.53001 10873 ft 320 kts 250°
2026-05-07 15:16 49.06151 9.49890 10757 ft 306 kts 248°
2026-05-07 15:16 49.05144 9.47102 10636 ft 296 kts 235°
2026-05-07 15:17 49.03788 9.44815 10494 ft 287 kts 223°
2026-05-07 15:17 49.02171 9.43082 10319 ft 282 kts 211°
2026-05-07 15:17 49.00465 9.41678 10227 ft 282 kts 211°
2026-05-07 15:17 48.98747 9.40251 10100 ft 281 kts 211°
2026-05-07 15:18 48.97035 9.38825 9829 ft 282 kts 211°
2026-05-07 15:18 48.95299 9.37376 9249 ft 281 kts 211°
2026-05-07 15:18 48.93560 9.36087 8543 ft 280 kts 200°
2026-05-07 15:18 48.91636 9.35677 7868 ft 280 kts 179°
2026-05-07 15:19 48.89747 9.36321 7252 ft 280 kts 158°
2026-05-07 15:19 48.88108 9.37910 6655 ft 280 kts 143°
2026-05-07 15:19 48.86593 9.39774 6020 ft 279 kts 143°
2026-05-07 15:19 48.85088 9.41615 5406 ft 277 kts 142°
2026-05-07 15:20 48.83574 9.43462 4931 ft 279 kts 143°
2026-05-07 15:20 48.82107 9.45251 4866 ft 262 kts 143°
2026-05-07 15:20 48.80726 9.46933 4804 ft 247 kts 143°
2026-05-07 15:20 48.79421 9.48521 4744 ft 235 kts 143°
2026-05-07 15:21 48.78152 9.50051 4658 ft 230 kts 146°
2026-05-07 15:21 48.76703 9.50928 4575 ft 224 kts 179°
2026-05-07 15:21 48.75213 9.50508 4493 ft 218 kts 212°
2026-05-07 15:21 48.74126 9.49005 4422 ft 213 kts 242°
2026-05-07 15:22 48.73619 9.46926 4234 ft 209 kts 257°
2026-05-07 15:22 48.73242 9.44853 3989 ft 199 kts 256°
2026-05-07 15:22 48.72880 9.42898 3738 ft 182 kts 258°
2026-05-07 15:22 48.72560 9.41190 3513 ft 160 kts 258°
2026-05-07 15:23 48.72270 9.39647 3288 ft 146 kts 257°
2026-05-07 15:23 48.71999 9.38193 3093 ft 141 kts 258°
2026-05-07 15:23 48.71735 9.36786 2908 ft 137 kts 259°
2026-05-07 15:23 48.71473 9.35388 2725 ft 139 kts 257°
2026-05-07 15:24 48.71212 9.33996 2539 ft 137 kts 257°
2026-05-07 15:24 48.70951 9.32606 2351 ft 139 kts 258°
2026-05-07 15:24 48.70688 9.31208 2164 ft 138 kts 256°
2026-05-07 15:24 48.70424 9.29808 1965 ft 138 kts 257°
2026-05-07 15:25 48.70157 9.28393 1783 ft 139 kts 257°
2026-05-07 15:25 48.69892 9.26989 1591 ft 139 kts 257°
2026-05-07 15:25 48.69628 9.25589 1412 ft 138 kts 259°
2026-05-07 15:25 48.69365 9.24197 1228 ft 136 kts 257°
2026-05-07 15:26 48.69140 9.22982 1224 ft 98 kts 255°
2026-05-07 15:26 48.68998 9.22236 1257 ft 53 kts 254°
2026-05-07 15:26 48.68906 9.21751 1253 ft 44 kts 254°
2026-05-07 15:26 48.68831 9.21344 1270 ft 29 kts 254°
2026-05-07 15:27 48.68828 9.21049 1269 ft 26 kts 280°
2026-05-07 15:27 48.68857 9.20851 1274 ft 14 kts 283°
2026-05-07 15:27 48.68875 9.20708 1277 ft 14 kts 272°
2026-05-07 15:27 48.68856 9.20574 1281 ft 12 kts 253°
2026-05-07 15:28 48.68830 9.20443 1285 ft 14 kts 254°
2026-05-07 15:28 48.68804 9.20304 1285 ft 14 kts 254°
2026-05-07 15:28 48.68777 9.20152 1285 ft 16 kts 255°
2026-05-07 15:28 48.68773 9.19979 1285 ft 19 kts 302°
2026-05-07 15:29 48.68825 9.19904 1288 ft 7 kts 322°
2026-05-07 15:29 48.68874 9.19873 1289 ft 6 kts 334°
2026-05-07 15:29 48.68888 9.19830 1287 ft 4 kts 272°
2026-05-07 15:29 48.68877 9.19765 1285 ft 11 kts 253°
2026-05-07 15:30 48.68852 9.19625 1285 ft 16 kts 254°
2026-05-07 15:30 48.68819 9.19457 1285 ft 12 kts 254°
2026-05-07 15:30 48.68829 9.19386 1290 ft 6 kts 328°
2026-05-07 15:30 48.68870 9.19366 1288 ft 6 kts 345°
2026-05-07 15:31 48.68882 9.19361 1288 ft 0 kts 345°